Weather in Fontvieille

Monaco     43°43′41″N   7°25′00″E
temp.,
°C
wind,
m/s
gust,
m/s
humid.,
%
clouds,
%
prec.,
mm/h
press.,
hPa
HPBL,
m
17 september, fri
fri1723:00+22wnw11745 0.6 1012134
02:00+22n226875 0.8 1012134
05:00+22ne33695 0.0 1010251
08:00+22nne11700 0.0 1010237
11:00+23sw21660 0.0 1011237
14:00+22ssw22770 0.1 1011393
17:00+23s22774 0.3 1010315
20:00+23ne437793 0.9 1010224
18 september, sat
sat1823:00+23se01715 0.0 1011235
02:00+22nne32730 0.0 1011250
05:00+22nne11700 0.0 1011222
08:00+22n116713 0.0 1012182
11:00+22sse116913 0.0 1013280
14:00+21se2280100 0.1 1013330
17:00+22s1177100 0.1 1012316
20:00+23sw22713 0.1 1011428
19 september, sun
sun1923:00+22nne227210 0.0 1012242
02:00+22wsw2271100 0.0 1011318
05:00+21nw22666 0.0 1010171
08:00+21w34610 0.0 1009316
11:00+23sw66540 0.0 1008541
14:00+26sw1010440 0.0 1007412
17:00+26sw99440 0.0 1006335
20:00+24ene79590 0.0 1008561
20 september, mon
mon2023:00+23n33545 0.0 1010130
02:00+22nw34455 0.0 1011171
05:00+21w135910 0.0 1011268
08:00+21nne125757 0.0 1011370
11:00+22sse32635 0.0 1012777
14:00+21se436866 0.1 1012565
17:00+22e44672 0.1 1011571
20:00+22ene3363100 0.1 1012403
21 september, tue
tue2123:00+22ne1162100 0.0 1014365
02:00+21nnw2167100 0.3 1015223
05:00+21nne2159100 0.0 1015201
08:00+21n215931 0.1 1017271
11:00+21s32595 0.0 1018361
14:00+22ese656267 0.0 1019586
17:00+22e667495 0.1 1019673
20:00+21e22711 0.5 1019419